Time,TemperatureF,DewpointF,PressureIn,WindDirection,WindDirectionDegrees,WindSpeedMPH,WindSpeedGustMPH,Humidity,HourlyPrecipIn,Conditions,Clouds,dailyrainin,SoftwareType,DateUTC
2013-10-16 00:05:00,58.6,57.0,29.48,SSW,192,0.0,0.0,93,0.00,,,0.00,weatherlink.com 1.10,2013-10-16 05:05:00,
2013-10-16 00:20:00,58.4,56.0,29.47,SSW,192,0.0,0.0,93,0.00,,,0.00,weatherlink.com 1.10,2013-10-16 05:20:00,
2013-10-16 00:35:00,58.4,57.0,29.47,SW,231,0.0,0.0,94,0.00,,,0.00,weatherlink.com 1.10,2013-10-16 05:35:00,
2013-10-16 00:50:00,57.9,56.0,29.47,SW,231,0.0,0.0,93,0.00,,,0.00,weatherlink.com 1.10,2013-10-16 05:50:00,
2013-10-16 01:05:00,57.5,56.0,29.47,SW,231,0.0,0.0,94,0.00,,,0.00,weatherlink.com 1.10,2013-10-16 06:05:00,
2013-10-16 01:20:00,57.5,56.0,29.47,SW,231,0.0,0.0,94,0.00,,,0.00,weatherlink.com 1.10,2013-10-16 06:20:00,
2013-10-16 01:35:00,57.3,56.0,29.47,SW,231,0.0,0.0,94,0.00,,,0.00,weatherlink.com 1.10,2013-10-16 06:35:00,
2013-10-16 01:50:00,57.3,56.0,29.47,SW,231,0.0,0.0,94,0.00,,,0.00,weatherlink.com 1.10,2013-10-16 06:50:00,
2013-10-16 02:05:00,57.3,56.0,29.47,SW,231,0.0,0.0,94,0.00,,,0.00,weatherlink.com 1.10,2013-10-16 07:05:00,
2013-10-16 02:20:00,57.2,56.0,29.46,SW,231,0.0,0.0,95,0.00,,,0.00,weatherlink.com 1.10,2013-10-16 07:20:00,
2013-10-16 02:35:00,57.2,56.0,29.46,SW,231,0.0,0.0,95,0.00,,,0.00,weatherlink.com 1.10,2013-10-16 07:35:00,
2013-10-16 02:50:00,57.4,56.0,29.44,South,190,0.0,0.0,95,0.00,,,0.00,weatherlink.com 1.10,2013-10-16 07:50:00,
2013-10-16 03:05:00,58.0,57.0,29.45,South,176,0.0,0.0,96,0.00,,,0.00,weatherlink.com 1.10,2013-10-16 08:05:00,
2013-10-16 03:20:00,57.7,56.0,29.45,South,176,0.0,0.0,95,0.00,,,0.00,weatherlink.com 1.10,2013-10-16 08:20:00,
2013-10-16 03:35:00,57.6,56.0,29.45,South,176,0.0,0.0,95,0.00,,,0.00,weatherlink.com 1.10,2013-10-16 08:35:00,
2013-10-16 03:50:00,57.7,56.0,29.44,South,176,0.0,0.0,95,0.00,,,0.00,weatherlink.com 1.10,2013-10-16 08:50:00,
2013-10-16 04:05:00,57.8,56.0,29.45,South,176,0.0,0.0,95,0.00,,,0.00,weatherlink.com 1.10,2013-10-16 09:05:00,
2013-10-16 04:20:00,57.9,57.0,29.45,South,176,0.0,0.0,95,0.00,,,0.00,weatherlink.com 1.10,2013-10-16 09:20:00,
2013-10-16 04:35:00,57.9,57.0,29.45,South,176,0.0,0.0,95,0.00,,,0.00,weatherlink.com 1.10,2013-10-16 09:35:00,
2013-10-16 04:50:00,57.9,57.0,29.45,South,176,0.0,0.0,95,0.00,,,0.00,weatherlink.com 1.10,2013-10-16 09:50:00,
2013-10-16 05:05:00,58.0,57.0,29.46,South,176,0.0,0.0,95,0.00,,,0.00,weatherlink.com 1.10,2013-10-16 10:05:00,
2013-10-16 05:20:00,58.0,57.0,29.46,South,176,0.0,0.0,95,0.00,,,0.00,weatherlink.com 1.10,2013-10-16 10:20:00,
2013-10-16 05:35:00,58.0,57.0,29.46,South,176,0.0,0.0,95,0.00,,,0.00,weatherlink.com 1.10,2013-10-16 10:35:00,
2013-10-16 05:50:00,57.9,57.0,29.45,South,176,0.0,0.0,95,0.00,,,0.00,weatherlink.com 1.10,2013-10-16 10:50:00,
2013-10-16 06:05:00,57.8,56.0,29.46,North,355,0.0,1.0,95,0.00,,,0.00,weatherlink.com 1.10,2013-10-16 11:05:00,
2013-10-16 06:20:00,57.6,56.0,29.46,North,355,0.0,0.0,95,0.00,,,0.00,weatherlink.com 1.10,2013-10-16 11:20:00,
2013-10-16 06:35:00,57.7,56.0,29.47,North,355,0.0,0.0,95,0.00,,,0.00,weatherlink.com 1.10,2013-10-16 11:35:00,
2013-10-16 06:50:00,58.0,57.0,29.47,North,355,0.0,0.0,96,0.00,,,0.00,weatherlink.com 1.10,2013-10-16 11:50:00,
2013-10-16 07:06:00,58.2,57.0,29.47,North,355,0.0,0.0,96,0.00,,,0.00,weatherlink.com 1.10,2013-10-16 12:06:00,
2013-10-16 07:21:00,58.4,57.0,29.48,North,355,0.0,0.0,96,0.00,,,0.00,weatherlink.com 1.10,2013-10-16 12:21:00,
2013-10-16 07:36:00,58.6,58.0,29.48,North,355,0.0,0.0,96,0.00,,,0.00,weatherlink.com 1.10,2013-10-16 12:36:00,
2013-10-16 07:51:00,58.9,58.0,29.49,North,355,0.0,0.0,96,0.00,,,0.00,weatherlink.com 1.10,2013-10-16 12:51:00,
2013-10-16 08:06:00,59.3,58.0,29.50,North,355,0.0,0.0,96,0.00,,,0.00,weatherlink.com 1.10,2013-10-16 13:06:00,
2013-10-16 08:21:00,59.6,59.0,29.49,North,355,0.0,0.0,96,0.00,,,0.00,weatherlink.com 1.10,2013-10-16 13:21:00,
2013-10-16 08:36:00,60.0,59.0,29.49,North,355,0.0,0.0,96,0.00,,,0.00,weatherlink.com 1.10,2013-10-16 13:36:00,
2013-10-16 08:51:00,60.5,59.0,29.50,SW,219,0.0,0.0,96,0.00,,,0.00,weatherlink.com 1.10,2013-10-16 13:51:00,
2013-10-16 09:06:00,60.9,60.0,29.50,SW,219,0.0,0.0,95,0.00,,,0.00,weatherlink.com 1.10,2013-10-16 14:06:00,
2013-10-16 09:21:00,61.4,60.0,29.50,SW,219,0.0,0.0,95,0.00,,,0.00,weatherlink.com 1.10,2013-10-16 14:21:00,
2013-10-16 09:36:00,61.8,60.0,29.50,South,171,0.0,2.0,94,0.00,,,0.00,weatherlink.com 1.10,2013-10-16 14:36:00,
2013-10-16 09:51:00,62.2,60.0,29.49,East,84,0.0,1.0,92,0.00,,,0.00,weatherlink.com 1.10,2013-10-16 14:51:00,
2013-10-16 10:06:00,62.6,60.0,29.50,South,186,0.0,1.0,91,0.00,,,0.00,weatherlink.com 1.10,2013-10-16 15:06:00,
2013-10-16 10:21:00,63.4,61.0,29.50,SSE,154,0.0,2.0,91,0.00,,,0.00,weatherlink.com 1.10,2013-10-16 15:21:00,
2013-10-16 10:36:00,64.3,61.0,29.50,SSE,154,0.0,0.0,90,0.00,,,0.00,weatherlink.com 1.10,2013-10-16 15:36:00,
2013-10-16 10:51:00,64.8,61.0,29.49,SW,224,0.0,1.0,87,0.00,,,0.00,weatherlink.com 1.10,2013-10-16 15:51:00,
2013-10-16 11:06:00,66.0,62.0,29.48,SSW,209,0.0,0.0,86,0.00,,,0.00,weatherlink.com 1.10,2013-10-16 16:06:00,
2013-10-16 11:21:00,67.2,62.0,29.48,ESE,108,0.0,6.0,82,0.00,,,0.00,weatherlink.com 1.10,2013-10-16 16:21:00,
2013-10-16 11:36:00,67.7,62.0,29.47,SSW,210,0.0,1.0,83,0.00,,,0.00,weatherlink.com 1.10,2013-10-16 16:36:00,
2013-10-16 11:51:00,68.5,63.0,29.47,West,265,0.0,1.0,82,0.00,,,0.00,weatherlink.com 1.10,2013-10-16 16:51:00,
2013-10-16 12:06:00,68.9,63.0,29.46,South,171,0.0,2.0,81,0.00,,,0.00,weatherlink.com 1.10,2013-10-16 17:06:00,
2013-10-16 12:21:00,69.2,63.0,29.46,South,185,0.0,1.0,80,0.00,,,0.00,weatherlink.com 1.10,2013-10-16 17:21:00,
2013-10-16 12:36:00,69.2,63.0,29.45,South,180,0.0,3.0,81,0.00,,,0.00,weatherlink.com 1.10,2013-10-16 17:36:00,
2013-10-16 12:51:00,69.2,64.0,29.45,South,169,0.0,1.0,83,0.00,,,0.00,weatherlink.com 1.10,2013-10-16 17:51:00,
2013-10-16 13:06:00,69.2,64.0,29.44,SSE,165,0.0,1.0,82,0.00,,,0.00,weatherlink.com 1.10,2013-10-16 18:06:00,
2013-10-16 13:21:00,69.5,64.0,29.43,South,179,0.0,0.0,83,0.00,,,0.00,weatherlink.com 1.10,2013-10-16 18:21:00,
2013-10-16 13:36:00,69.6,64.0,29.43,SSE,164,0.0,2.0,81,0.00,,,0.00,weatherlink.com 1.10,2013-10-16 18:36:00,
2013-10-16 13:51:00,69.9,64.0,29.42,SSE,164,0.0,0.0,81,0.00,,,0.00,weatherlink.com 1.10,2013-10-16 18:51:00,
2013-10-16 14:06:00,69.8,64.0,29.41,SSE,161,0.0,0.0,83,0.00,,,0.00,weatherlink.com 1.10,2013-10-16 19:06:00,
2013-10-16 14:21:00,70.0,64.0,29.41,South,174,0.0,0.0,81,0.00,,,0.00,weatherlink.com 1.10,2013-10-16 19:21:00,
2013-10-16 14:36:00,70.3,65.0,29.41,South,188,0.0,1.0,84,0.00,,,0.00,weatherlink.com 1.10,2013-10-16 19:36:00,
2013-10-16 14:51:00,70.8,65.0,29.41,SSW,196,1.0,2.0,82,0.00,,,0.00,weatherlink.com 1.10,2013-10-16 19:51:00,
2013-10-16 15:06:00,71.4,65.0,29.41,South,180,0.0,1.0,80,0.00,,,0.00,weatherlink.com 1.10,2013-10-16 20:06:00,
2013-10-16 15:22:00,71.4,66.0,29.41,South,180,0.0,0.0,82,0.00,,,0.00,weatherlink.com 1.10,2013-10-16 20:22:00,
2013-10-16 15:37:00,70.8,65.0,29.40,South,186,0.0,2.0,83,0.00,,,0.00,weatherlink.com 1.10,2013-10-16 20:37:00,
2013-10-16 15:52:00,70.4,65.0,29.39,South,190,0.0,1.0,84,0.00,,,0.00,weatherlink.com 1.10,2013-10-16 20:52:00,
2013-10-16 16:07:00,70.2,66.0,29.39,South,177,0.0,1.0,85,0.00,,,0.00,weatherlink.com 1.10,2013-10-16 21:07:00,
2013-10-16 16:22:00,70.1,65.0,29.39,South,178,0.0,0.0,85,0.00,,,0.00,weatherlink.com 1.10,2013-10-16 21:22:00,
2013-10-16 16:37:00,69.5,65.0,29.39,South,178,0.0,0.0,86,0.00,,,0.00,weatherlink.com 1.10,2013-10-16 21:37:00,
2013-10-16 16:52:00,69.1,66.0,29.39,South,178,0.0,1.0,88,0.00,,,0.00,weatherlink.com 1.10,2013-10-16 21:52:00,
2013-10-16 17:07:00,69.0,65.0,29.39,SSW,207,0.0,0.0,88,0.00,,,0.00,weatherlink.com 1.10,2013-10-16 22:07:00,
2013-10-16 17:22:00,68.7,65.0,29.39,SSW,207,0.0,0.0,89,0.00,,,0.00,weatherlink.com 1.10,2013-10-16 22:22:00,
2013-10-16 17:37:00,68.4,65.0,29.39,SSW,207,0.0,0.0,90,0.00,,,0.00,weatherlink.com 1.10,2013-10-16 22:37:00,
2013-10-16 17:52:00,68.0,65.0,29.39,SSW,207,0.0,0.0,90,0.00,,,0.00,weatherlink.com 1.10,2013-10-16 22:52:00,
2013-10-16 18:07:00,67.7,65.0,29.38,SSW,207,0.0,0.0,91,0.00,,,0.00,weatherlink.com 1.10,2013-10-16 23:07:00,
2013-10-16 18:22:00,67.4,65.0,29.38,SSW,207,0.0,0.0,91,0.00,,,0.00,weatherlink.com 1.10,2013-10-16 23:22:00,
2013-10-16 18:37:00,67.3,65.0,29.39,SSW,207,0.0,0.0,91,0.00,,,0.00,weatherlink.com 1.10,2013-10-16 23:37:00,
2013-10-16 18:52:00,67.1,65.0,29.40,SSW,207,0.0,0.0,92,0.00,,,0.00,weatherlink.com 1.10,2013-10-16 23:52:00,
2013-10-16 19:07:00,67.0,65.0,29.40,SSW,207,0.0,0.0,92,0.00,,,0.00,weatherlink.com 1.10,2013-10-17 00:07:00,
2013-10-16 19:22:00,66.8,65.0,29.40,SSW,207,0.0,0.0,93,0.00,,,0.00,weatherlink.com 1.10,2013-10-17 00:22:00,
2013-10-16 19:37:00,66.6,65.0,29.40,SSW,207,0.0,0.0,93,0.00,,,0.00,weatherlink.com 1.10,2013-10-17 00:37:00,
2013-10-16 19:52:00,66.4,64.0,29.40,SSW,207,0.0,0.0,93,0.00,,,0.00,weatherlink.com 1.10,2013-10-17 00:52:00,
2013-10-16 20:07:00,66.2,64.0,29.40,SSW,207,0.0,0.0,93,0.00,,,0.00,weatherlink.com 1.10,2013-10-17 01:07:00,
2013-10-16 20:22:00,66.1,64.0,29.40,SSW,207,0.0,0.0,94,0.00,,,0.00,weatherlink.com 1.10,2013-10-17 01:22:00,
2013-10-16 20:37:00,65.9,64.0,29.40,SSW,207,0.0,0.0,94,0.00,,,0.00,weatherlink.com 1.10,2013-10-17 01:37:00,
2013-10-16 20:52:00,65.7,64.0,29.40,SSW,207,0.0,0.0,94,0.00,,,0.00,weatherlink.com 1.10,2013-10-17 01:52:00,
2013-10-16 21:07:00,65.6,64.0,29.40,SSW,211,0.0,2.0,94,0.00,,,0.00,weatherlink.com 1.10,2013-10-17 02:07:00,
2013-10-16 21:22:00,65.6,64.0,29.40,SSW,211,0.0,0.0,94,0.00,,,0.00,weatherlink.com 1.10,2013-10-17 02:22:00,
2013-10-16 21:37:00,65.6,64.0,29.40,SSW,206,0.0,0.0,94,0.00,,,0.00,weatherlink.com 1.10,2013-10-17 02:37:00,
2013-10-16 21:52:00,65.5,64.0,29.40,SSW,206,0.0,0.0,94,0.00,,,0.00,weatherlink.com 1.10,2013-10-17 02:52:00,
2013-10-16 22:07:00,65.4,64.0,29.40,SSW,206,0.0,0.0,94,0.00,,,0.00,weatherlink.com 1.10,2013-10-17 03:07:00,
2013-10-16 22:22:00,65.4,64.0,29.39,SSW,206,0.0,0.0,94,0.00,,,0.00,weatherlink.com 1.10,2013-10-17 03:22:00,
2013-10-16 22:37:00,65.4,64.0,29.39,SSW,206,0.0,0.0,94,0.00,,,0.00,weatherlink.com 1.10,2013-10-17 03:37:00,
2013-10-16 22:52:00,65.2,64.0,29.39,SSW,206,0.0,0.0,94,0.00,,,0.00,weatherlink.com 1.10,2013-10-17 03:52:00,
2013-10-16 23:07:00,65.2,64.0,29.39,SSW,206,0.0,0.0,94,0.00,,,0.00,weatherlink.com 1.10,2013-10-17 04:07:00,
2013-10-16 23:22:00,65.2,64.0,29.38,SSW,206,0.0,0.0,94,0.00,,,0.00,weatherlink.com 1.10,2013-10-17 04:22:00,
2013-10-16 23:37:00,65.2,64.0,29.38,SSW,206,0.0,0.0,95,0.00,,,0.00,weatherlink.com 1.10,2013-10-17 04:37:00,
2013-10-16 23:52:00,65.2,64.0,29.38,SSW,206,0.0,0.0,95,0.00,,,0.00,weatherlink.com 1.10,2013-10-17 04:52:00,